This is the latest recevied weather packets stored in our database for station/object F4DVI. If no packets are shown the sender has not sent any weather packets the latest 1 day(s).
| Time | Temp. | Humidity | Pressure | Rain* | Wind** | Luminosity | Snow |
|---|---|---|---|---|---|---|---|
| 1777990113 | 16.11° C | 81% | 0 hPa | 0 mm | 0.45 m/s, 246° | - | - |
| 1777989813 | 15.56° C | 81% | 0 hPa | 0 mm | 1.34 m/s, 229° | - | - |
| 1777989513 | 15° C | 81% | 0 hPa | 0 mm | 0 m/s | - | - |
| 1777989213 | 15° C | 81% | 0 hPa | 0 mm | 1.34 m/s, 293° | - | - |
| 1777988913 | 15° C | 81% | 0 hPa | 0 mm | 0.89 m/s, 265° | - | - |
| 1777988613 | 15.56° C | 80% | 0 hPa | 0 mm | 0 m/s | - | - |
| 1777988313 | 15.56° C | 79% | 0 hPa | 0 mm | 2.24 m/s, 237° | - | - |
| 1777988013 | 16.11° C | 78% | 0 hPa | 0 mm | 0.45 m/s, 293° | - | - |
| 1777987713 | 16.67° C | 77% | 0 hPa | 0 mm | 1.34 m/s, 274° | - | - |
| 1777987413 | 17.22° C | 76% | 0 hPa | 0 mm | 1.79 m/s, 244° | - | - |
| 1777987113 | 16.67° C | 76% | 0 hPa | 0 mm | 3.58 m/s, 241° | - | - |
| 1777986813 | 16.67° C | 77% | 0 hPa | 0 mm | 0 m/s | - | - |
| 1777986513 | 16.67° C | 77% | 0 hPa | 0 mm | 2.68 m/s, 270° | - | - |
| 1777986213 | 16.67° C | 77% | 0 hPa | 0 mm | 4.02 m/s, 240° | - | - |
| 1777985913 | 16.67° C | 77% | 0 hPa | 0 mm | 0.89 m/s, 253° | - | - |
| 1777985613 | 16.67° C | 78% | 0 hPa | 0 mm | 1.34 m/s, 251° | - | - |
| 1777985313 | 16.67° C | 79% | 0 hPa | 0 mm | 1.79 m/s, 254° | - | - |
| 1777985013 | 16.11° C | 79% | 0 hPa | 0 mm | 1.79 m/s, 2° | - | - |
| 1777984713 | 16.11° C | 78% | 0 hPa | 0 mm | 3.13 m/s, 246° | - | - |
| 1777984413 | 16.67° C | 78% | 0 hPa | 0 mm | 4.02 m/s, 258° | - | - |
| 1777984113 | 16.67° C | 78% | 0 hPa | 0 mm | 2.24 m/s, 300° | - | - |
| 1777983813 | 16.67° C | 79% | 0 hPa | 0 mm | 2.68 m/s, 233° | - | - |
| 1777983513 | 17.22° C | 78% | 0 hPa | 0 mm | 2.68 m/s, 233° | - | - |
| 1777983213 | 17.22° C | 78% | 0 hPa | 0 mm | 0 m/s | - | - |
| 1777982913 | 17.22° C | 78% | 0 hPa | 0 mm | 0.89 m/s, 244° | - | - |
* Rain latest hour (hover to see other rain measurements)
** Current wind speed in m/s (hover to see current wind gust speed)